[[{"header":{"parameterUnit":"m.s-1","parameterCategory":2,"la1":30.2992,"la2":30.254,"lo1":-89.0895,"lo2":-89.0443,"dy":0.0025,"dx":0.0025,"nx":19,"ny":19,"refTime":"2026-03-09T09:00:00:Z","depth":"0","parameterNumber":2,"parameterNumberName":"U-component_of_CURRENTS"},"data":[0,0,0,0.1632,0.1632,0.161,0.161,0.16,0.16,0,0,0,0,0,0,0,0,0,0,0,0.1638,0.1638,0.1632,0.1632,0.161,0.1609,0.16,0.16,0,0,0,0,0,0,0,0,0,0,0,0.1638,0.1638,0.1638,0.1632,0.161,0.1609,0.16,0.1607,0,0,0,0,0,0,0,0,0,0,0.1625,0.1635,0.1638,0.1638,0.1632,0.161,0.1609,0.1607,0.1607,0.1621,0,0.1629,0,0.1625,0.1602,0.1602,0,0,0,0.1613,0.1635,0.1633,0.1638,0.1632,0.161,0.1615,0.1607,0.1606,0.1621,0.1629,0.1629,0.1625,0.1602,0.1602,0.1703,0.1704,0,0,0.1615,0.1627,0.1633,0.1633,0.1643,0.1615,0.1614,0.1606,0.1611,0.1629,0.1628,0.1625,0.1602,0.1602,0.1702,0.1703,0,0,0,0.1631,0.1628,0.1625,0.1634,0.1634,0.1615,0.1614,0.1611,0.1612,0.1628,0.1624,0.1602,0.1602,0.1701,0.1702,0.1769,0,0,0,0.163,0.1638,0.1626,0.1632,0.1635,0.1621,0.1619,0.1612,0.1611,0.1624,0.1602,0.1602,0.17,0.1702,0.1765,0.1758,0,0,0,0.1636,0.1639,0.1642,0.1633,0.1632,0.1621,0.1619,0.1611,0.161,0.1602,0.1603,0.1699,0.1701,0.1761,0.1753,0.1812,0,0,0,0.1639,0.1653,0.1642,0.1657,0.1632,0.1645,0.1619,0.1615,0.1609,0.1602,0.17,0.1702,0.176,0.175,0.1808,0.1718,0.1726,0,0,0.1657,0.1656,0.1663,0.1653,0.1671,0.1646,0.1681,0.1656,0.1654,0.1698,0.17,0.1766,0.1753,0.1811,0.1848,0.1851,0,0,0,0.1669,0.167,0.1676,0.1682,0.1691,0.1709,0.1691,0.1714,0.1758,0.1666,0.1793,0.1783,0.1817,0.1757,0.1761,0.1649,0.1713,0.1712,0.1712,0.1685,0.1686,0.1698,0.1705,0.1727,0.1752,0.1783,0.1817,0.1807,0.1857,0.1859,0.1971,0.1911,0.1912,0.1799,0.1902,0.1903,0.1903,0.1903,0.1693,0.1688,0.1709,0.1717,0.1755,0.179,0.1875,0.1893,0.1984,0.1956,0.1988,0.1856,0.192,0.1798,0.1908,0.1907,0.1906,0.1906,0.1905,0.1677,0.1676,0.1683,0.1707,0.1752,0.1806,0.1883,0.1958,0.2023,0.2065,0.2006,0.2003,0.1874,0.2096,0.2096,0.2096,0.2097,0.2097,0.2097,0.1655,0.1664,0.1667,0.1695,0.1713,0.1773,0.1894,0.1961,0.2037,0.2051,0.2051,0.1897,0.203,0.1997,0.2101,0.21,0.21,0.2099,0.2099,0.1635,0.1635,0.1639,0.1648,0.1687,0.1701,0.1828,0.1926,0.2018,0.2036,0.1896,0.2053,0.2016,0.2011,0.1979,0.2072,0.2072,0.2072,0.2072,0.1617,0.162,0.1611,0.1616,0.1638,0.167,0.1683,0.1764,0.1823,0.1796,0.1825,0.1746,0.1752,0.1695,0.1697,0.1657,0.1666,0.1666,0.1665,0.1614,0.1609,0.1592,0.1587,0.1603,0.1609,0.1556,0.1502,0.1569,0.1641,0.1693,0.171,0.1588,0.1606,0.1509,0.1521,0.1452,0,0]},{"header":{"parameterUnit":"m.s-1","parameterCategory":2,"la1":30.2992,"la2":30.254,"lo1":-89.0895,"lo2":-89.0443,"dy":0.0025,"dx":0.0025,"nx":19,"ny":19,"refTime":"2026-03-09T09:00:00:Z","depth":"0","parameterNumber":3,"parameterNumberName":"V-component_of_CURRENTS"},"data":[0,0,0,0.0286,0.0286,0.0284,0.0284,0.027,0.027,0,0,0,0,0,0,0,0,0,0,0,0.029,0.029,0.0286,0.0286,0.0284,0.0283,0.027,0.027,0,0,0,0,0,0,0,0,0,0,0,0.029,0.029,0.029,0.0286,0.0284,0.0283,0.027,0.0273,0,0,0,0,0,0,0,0,0,0,0.0277,0.0281,0.029,0.029,0.0286,0.0284,0.0283,0.0274,0.0273,0.0271,0,0.0277,0,0.0275,0.027,0.027,0,0,0,0.028,0.0282,0.0284,0.029,0.0286,0.0284,0.0283,0.0273,0.0273,0.027,0.0277,0.0277,0.0275,0.027,0.027,0.0327,0.0328,0,0,0.0281,0.0284,0.0284,0.0284,0.0295,0.0283,0.0283,0.0273,0.0275,0.0277,0.0276,0.0274,0.027,0.027,0.0327,0.0328,0,0,0,0.0285,0.0284,0.0287,0.0285,0.0286,0.0283,0.0283,0.0275,0.0277,0.0276,0.0274,0.027,0.0269,0.0326,0.0327,0.0425,0,0,0,0.0285,0.0287,0.0287,0.0288,0.0286,0.0281,0.0285,0.0278,0.0276,0.0274,0.027,0.0269,0.0325,0.0327,0.042,0.047,0,0,0,0.0288,0.0287,0.029,0.0288,0.029,0.0281,0.0282,0.0277,0.0276,0.027,0.0269,0.0325,0.0326,0.0417,0.0463,0.0525,0,0,0,0.0286,0.0311,0.0291,0.0315,0.029,0.0316,0.0282,0.0289,0.0288,0.027,0.0325,0.0327,0.0415,0.0459,0.0521,0.0543,0.0565,0,0,0.032,0.0315,0.0329,0.0312,0.0356,0.0316,0.0366,0.0343,0.0314,0.0325,0.0326,0.0422,0.0463,0.0525,0.0638,0.0658,0,0,0,0.0341,0.0356,0.0364,0.0381,0.0387,0.042,0.0389,0.0394,0.0414,0.0323,0.0428,0.0451,0.0487,0.0491,0.0507,0.0448,0.0335,0.0334,0.0334,0.0392,0.0397,0.0439,0.0455,0.0475,0.0488,0.052,0.0524,0.0473,0.0507,0.0535,0.0656,0.0662,0.0674,0.0613,0.0536,0.0536,0.0537,0.0537,0.0458,0.0485,0.0504,0.0545,0.0577,0.0617,0.0659,0.0648,0.0705,0.064,0.067,0.0599,0.0697,0.0626,0.0543,0.0542,0.0541,0.0541,0.054,0.0488,0.0508,0.0531,0.0602,0.0675,0.0706,0.0813,0.0818,0.0804,0.0844,0.0825,0.0823,0.0756,0.0851,0.0851,0.0852,0.0852,0.0853,0.0853,0.0513,0.0544,0.0591,0.0663,0.0718,0.0812,0.0905,0.0959,0.0982,0.0944,0.0943,0.0798,0.0751,0.0734,0.0861,0.086,0.0859,0.0858,0.0857,0.0566,0.0561,0.0637,0.0689,0.0825,0.095,0.1028,0.1135,0.1162,0.1176,0.0985,0.0993,0.0964,0.0949,0.0936,0.1109,0.1109,0.1109,0.1109,0.0587,0.0595,0.0683,0.0773,0.0902,0.1015,0.1189,0.1257,0.1187,0.1109,0.1055,0.0976,0.0968,0.0933,0.0919,0.0902,0.1062,0.1062,0.1061,0.0632,0.0644,0.071,0.0784,0.0934,0.1093,0.1256,0.1322,0.1164,0.1051,0.0976,0.0978,0.0847,0.084,0.0766,0.0751,0.0715,0,0]}],[{"header":{"parameterUnit":"m.s-1","parameterCategory":2,"la1":30.2992,"la2":30.254,"lo1":-89.0895,"lo2":-89.0443,"dy":0.0025,"dx":0.0025,"nx":19,"ny":19,"refTime":"2026-03-09T09:00:00:Z","depth":"2","parameterNumber":2,"parameterNumberName":"U-component_of_CURRENTS"},"data":[0,0,0,0.1553,0.1553,0.1553,0.1553,0.1563,0.1564,0,0,0,0,0,0,0,0,0,0,0,0.1553,0.1553,0.1553,0.1553,0.1553,0.1553,0.1563,0.1564,0,0,0,0,0,0,0,0,0,0,0,0.1552,0.1553,0.1553,0.1553,0.1553,0.1553,0.1563,0.1558,0,0,0,0,0,0,0,0,0,0,0.1556,0.1561,0.1553,0.1553,0.1553,0.1553,0.1553,0.1558,0.1558,0.1569,0,0.1577,0,0.1576,0.1565,0.1566,0,0,0,0.1543,0.1561,0.156,0.1553,0.1553,0.1553,0.155,0.1558,0.1559,0.1571,0.1577,0.1578,0.1576,0.1566,0.1566,0.1659,0.166,0,0,0.1543,0.1552,0.1559,0.1561,0.1564,0.155,0.155,0.1558,0.1565,0.1577,0.1578,0.1577,0.1566,0.1566,0.1658,0.1659,0,0,0,0.155,0.1552,0.155,0.156,0.1563,0.1551,0.1551,0.1564,0.1564,0.1578,0.1577,0.1566,0.1566,0.1657,0.1659,0.1717,0,0,0,0.1549,0.1557,0.155,0.1556,0.1563,0.1564,0.1557,0.1563,0.1564,0.1577,0.1566,0.1567,0.1656,0.1658,0.1714,0.1705,0,0,0,0.1551,0.1557,0.156,0.1556,0.1561,0.1563,0.1563,0.1563,0.1564,0.1566,0.1567,0.1656,0.1658,0.1711,0.1701,0.1759,0,0,0,0.1555,0.1563,0.156,0.1575,0.1561,0.1579,0.1562,0.157,0.1574,0.1566,0.1657,0.1658,0.171,0.1698,0.1756,0.1637,0.1641,0,0,0.1564,0.1565,0.1574,0.1571,0.1587,0.1578,0.1617,0.1609,0.1611,0.165,0.1652,0.1715,0.17,0.1758,0.1749,0.1749,0,0,0,0.1576,0.1578,0.1584,0.1596,0.161,0.1632,0.1633,0.1658,0.1704,0.1625,0.1738,0.1727,0.1762,0.1684,0.1686,0.1668,0.1667,0.1667,0.1667,0.1571,0.1584,0.1599,0.1617,0.1644,0.1676,0.1709,0.1748,0.1746,0.1792,0.1793,0.1897,0.1817,0.1816,0.1833,0.1833,0.1833,0.1833,0.1833,0.157,0.1577,0.161,0.163,0.1671,0.1715,0.1793,0.1814,0.1899,0.1876,0.1909,0.1772,0.182,0.1839,0.1838,0.1837,0.1836,0.1836,0.1836,0.1554,0.1562,0.1581,0.1622,0.1674,0.1732,0.181,0.1872,0.1935,0.1973,0.1903,0.19,0.1911,0.2009,0.2009,0.2009,0.201,0.201,0.201,0.1531,0.1552,0.1568,0.1611,0.1637,0.1702,0.1818,0.1878,0.1929,0.1937,0.1937,0.1955,0.195,0.1922,0.2014,0.2013,0.2013,0.2012,0.2012,0.1509,0.1529,0.1545,0.1563,0.1608,0.1611,0.1747,0.1815,0.1896,0.189,0.1926,0.1927,0.1891,0.1888,0.1859,0.1929,0.1929,0.1929,0.1929,0.1493,0.1504,0.1519,0.1529,0.1544,0.1571,0.1561,0.1583,0.1682,0.1697,0.1707,0.163,0.1639,0.1584,0.1588,0.1551,0.1542,0.1541,0.154,0.1477,0.1495,0.1483,0.15,0.1502,0.1498,0.1404,0.1273,0.1326,0.1525,0.1636,0.1904,0.1815,0.1819,0.1753,0.1752,0.17,0,0]},{"header":{"parameterUnit":"m.s-1","parameterCategory":2,"la1":30.2992,"la2":30.254,"lo1":-89.0895,"lo2":-89.0443,"dy":0.0025,"dx":0.0025,"nx":19,"ny":19,"refTime":"2026-03-09T09:00:00:Z","depth":"2","parameterNumber":3,"parameterNumberName":"V-component_of_CURRENTS"},"data":[0,0,0,0.0116,0.0116,0.0129,0.0129,0.0128,0.0128,0,0,0,0,0,0,0,0,0,0,0,0.0113,0.0113,0.0116,0.0116,0.0129,0.013,0.0128,0.0128,0,0,0,0,0,0,0,0,0,0,0,0.0113,0.0113,0.0114,0.0116,0.0129,0.013,0.0128,0.0122,0,0,0,0,0,0,0,0,0,0,0.0111,0.0111,0.0113,0.0114,0.0116,0.0129,0.013,0.0122,0.0122,0.0117,0,0.0123,0,0.0125,0.0127,0.0127,0,0,0,0.0114,0.011,0.0116,0.0114,0.0116,0.0129,0.0123,0.0122,0.0123,0.0117,0.0123,0.0123,0.0125,0.0127,0.0127,0.017,0.017,0,0,0.0113,0.0113,0.0115,0.0116,0.0125,0.0122,0.0123,0.0123,0.0124,0.0123,0.0123,0.0125,0.0127,0.0127,0.0169,0.017,0,0,0,0.0112,0.0112,0.0118,0.0116,0.012,0.0123,0.0124,0.0124,0.0127,0.0123,0.0125,0.0127,0.0127,0.0169,0.017,0.0242,0,0,0,0.0112,0.0112,0.0117,0.0117,0.012,0.0124,0.0125,0.0127,0.0127,0.0125,0.0127,0.0127,0.0168,0.0169,0.0239,0.0274,0,0,0,0.0112,0.0112,0.0115,0.0117,0.0123,0.0124,0.0127,0.0127,0.0127,0.0127,0.0127,0.0168,0.0169,0.0236,0.0269,0.0331,0,0,0,0.0107,0.0122,0.0116,0.0134,0.0123,0.015,0.0127,0.0141,0.0144,0.0127,0.0168,0.0169,0.0235,0.0266,0.0328,0.0323,0.0339,0,0,0.0124,0.0124,0.0136,0.0131,0.0166,0.0147,0.019,0.018,0.0161,0.0165,0.0166,0.024,0.0269,0.0331,0.0392,0.0406,0,0,0,0.0141,0.0155,0.0163,0.0182,0.0192,0.0223,0.0211,0.0215,0.0233,0.0169,0.0244,0.026,0.0297,0.0286,0.0298,0.0175,0.0175,0.0175,0.0175,0.0159,0.0175,0.021,0.0237,0.0259,0.0276,0.0301,0.0307,0.0275,0.03,0.0322,0.0423,0.0412,0.042,0.0323,0.0323,0.0324,0.0324,0.0324,0.0201,0.0233,0.0261,0.0306,0.0338,0.0378,0.0405,0.0398,0.0445,0.0395,0.0428,0.0366,0.0437,0.033,0.0329,0.0328,0.0327,0.0327,0.0327,0.0225,0.0248,0.0278,0.035,0.0418,0.045,0.054,0.0533,0.0523,0.0554,0.0545,0.0543,0.0473,0.0578,0.0578,0.0578,0.0579,0.0579,0.0579,0.0243,0.0277,0.0328,0.0399,0.0456,0.0539,0.0618,0.0659,0.0665,0.0631,0.0631,0.0508,0.05,0.0488,0.0586,0.0585,0.0584,0.0584,0.0583,0.0281,0.03,0.0373,0.0427,0.0547,0.0647,0.0723,0.0795,0.0815,0.0807,0.0674,0.0669,0.0648,0.0638,0.0628,0.0758,0.0758,0.0758,0.0758,0.0303,0.0317,0.0416,0.0496,0.0602,0.0697,0.0836,0.0856,0.081,0.075,0.075,0.0681,0.0674,0.0649,0.0638,0.0626,0.0756,0.0756,0.0756,0.0326,0.036,0.0423,0.0507,0.0623,0.0761,0.0869,0.0863,0.0756,0.0754,0.0733,0.0761,0.0655,0.0646,0.06,0.0586,0.0563,0,0]}],[{"header":{"parameterUnit":"m.s-1","parameterCategory":2,"la1":30.2992,"la2":30.254,"lo1":-89.0895,"lo2":-89.0443,"dy":0.0025,"dx":0.0025,"nx":19,"ny":19,"refTime":"2026-03-09T09:00:00:Z","depth":"4","parameterNumber":2,"parameterNumberName":"U-component_of_CURRENTS"},"data":[0,0,0,0.0889,0.0891,0.0997,0.0998,0.1101,0.1102,0,0,0,0,0,0,0,0,0,0,0,0.0858,0.0859,0.0889,0.0891,0.0997,0.0998,0.1101,0.1102,0,0,0,0,0,0,0,0,0,0,0,0.0858,0.0859,0.086,0.0891,0.0997,0.0998,0.1101,0.1031,0,0,0,0,0,0,0,0,0,0,0.0933,0.0907,0.0859,0.086,0.0892,0.0997,0.0998,0.1028,0.1035,0.1041,0,0.106,0,0.1076,0.1107,0.1107,0,0,0,0.09,0.0901,0.0926,0.086,0.0893,0.0997,0.0952,0.1032,0.1041,0.105,0.1061,0.1065,0.1078,0.1108,0.1108,0.1194,0.1194,0,0,0.0894,0.0881,0.092,0.0931,0.0923,0.0948,0.0955,0.1038,0.1048,0.1062,0.1068,0.1079,0.1108,0.1109,0.1193,0.1194,0,0,0,0.0871,0.0877,0.0901,0.0927,0.0945,0.0951,0.0959,0.1045,0.1052,0.1069,0.1081,0.1109,0.111,0.1193,0.1193,0.1216,0,0,0,0.0868,0.0863,0.0898,0.0892,0.0943,0.1,0.0964,0.1047,0.1057,0.108,0.1109,0.111,0.1193,0.1193,0.1214,0.1212,0,0,0,0.0853,0.0861,0.0873,0.0891,0.0932,0.1,0.1013,0.105,0.1063,0.1108,0.1111,0.1192,0.1193,0.1213,0.1211,0.1237,0,0,0,0.0835,0.0849,0.0873,0.0898,0.0931,0.0989,0.1013,0.1069,0.1108,0.1109,0.1193,0.1193,0.1213,0.121,0.1236,0.1066,0,0,0,0.0837,0.085,0.0863,0.0887,0.093,0.0974,0.1033,0.1097,0.1121,0.1164,0.1166,0.1215,0.1211,0.1237,0.1116,0,0,0,0,0.0854,0.0866,0.0883,0.0919,0.0963,0.1021,0.1081,0.1115,0.1183,0.1146,0.1225,0.1222,0.1237,0.1135,0.1197,0.1197,0.1197,0.1197,0.1197,0.0844,0.0869,0.0897,0.0939,0.0981,0.1061,0.1112,0.117,0.1194,0.1233,0.1248,0.1292,0.1186,0.1263,0.1263,0.1263,0.1264,0.1264,0.1264,0.0845,0.0857,0.0906,0.0943,0.1006,0.1065,0.1155,0.1195,0.1274,0.1279,0.1294,0.1175,0.1266,0.1266,0.1265,0.1265,0.1265,0.1265,0.1265,0.0832,0.0837,0.0876,0.093,0.0996,0.1075,0.1137,0.1219,0.1287,0.1316,0.1223,0.1309,0.1298,0.1339,0.1339,0.1339,0.1339,0.1339,0.134,0.0791,0.0825,0.0849,0.0914,0.0949,0.1021,0.1136,0.1177,0.1262,0.1224,0.1333,0.1317,0.1315,0.1303,0.1341,0.1341,0.1341,0.1341,0.1341,0.0756,0.0776,0.0795,0.0827,0.0886,0.0921,0.1048,0.1097,0.1132,0.1135,0.1175,0.1182,0.1158,0.116,0.1141,0.1133,0.1131,0.1129,0,0.0721,0.0736,0.0738,0.0751,0.0765,0.085,0.0855,0.0925,0.1011,0.0978,0.1138,0.1181,0.1186,0.1156,0.1154,0.113,0,0,0,0.0694,0.0697,0.0681,0.0697,0.0697,0.0745,0.0845,0.0837,0.1004,0.0987,0.1078,0.1091,0.1222,0.1347,0.1328,0.1325,0.1305,0,0]},{"header":{"parameterUnit":"m.s-1","parameterCategory":2,"la1":30.2992,"la2":30.254,"lo1":-89.0895,"lo2":-89.0443,"dy":0.0025,"dx":0.0025,"nx":19,"ny":19,"refTime":"2026-03-09T09:00:00:Z","depth":"4","parameterNumber":3,"parameterNumberName":"V-component_of_CURRENTS"},"data":[0,0,0,0.0006,0.0006,0.0016,0.0016,0.0021,0.0021,0,0,0,0,0,0,0,0,0,0,0,0.0001,0.0001,0.0006,0.0006,0.0016,0.0016,0.0021,0.0021,0,0,0,0,0,0,0,0,0,0,0,0.0001,0.0001,0.0001,0.0006,0.0016,0.0016,0.0021,0.0015,0,0,0,0,0,0,0,0,0,0,0.0007,0.0001,0.0001,0.0001,0.0006,0.0016,0.0016,0.0015,0.0016,0.0014,0,0.0015,0,0.0019,0.0021,0.0021,0,0,0,0.0006,0.0001,0.0006,0.0001,0.0006,0.0016,0.0011,0.0015,0.0016,0.0015,0.0016,0.0016,0.0019,0.0021,0.0021,0.0033,0.0033,0,0,0.0005,0.0001,0.0005,0.0006,0.0008,0.0011,0.0011,0.0016,0.0015,0.0016,0.0016,0.0019,0.0021,0.0021,0.0033,0.0033,0,0,0,0.0004,0.0,0.0005,0.0006,0.0009,0.0011,0.0012,0.0014,0.0017,0.0016,0.0019,0.0021,0.0021,0.0033,0.0033,0.0052,0,0,0,0.0003,-0.0,0.0005,0.0002,0.0009,0.0012,0.001,0.0016,0.0017,0.0019,0.0021,0.0021,0.0033,0.0033,0.0051,0.0072,0,0,0,0.0,-0.0001,0.0001,0.0002,0.0007,0.0012,0.0015,0.0016,0.0019,0.0021,0.0021,0.0033,0.0033,0.0051,0.0071,0.0095,0,0,0,-0.0005,-0.0,0.0,0.0007,0.0006,0.0023,0.0015,0.0026,0.003,0.0021,0.0033,0.0033,0.0051,0.007,0.0093,0.0114,0,0,0,-0.0,0.0,0.0005,0.0006,0.0025,0.0021,0.0038,0.0039,0.0032,0.0031,0.0031,0.0052,0.0071,0.0094,0.0129,0,0,0,0,0.0006,0.0011,0.0016,0.0026,0.0036,0.0051,0.005,0.0047,0.0049,0.0035,0.0052,0.0063,0.0078,0.0086,0.0034,0.0034,0.0034,0.0034,0.0034,0.0009,0.0018,0.0034,0.0048,0.0057,0.0071,0.008,0.0077,0.0063,0.0066,0.0078,0.011,0.0118,0.007,0.0071,0.0071,0.0071,0.0071,0.0071,0.0024,0.0037,0.005,0.0069,0.0086,0.0101,0.011,0.0106,0.0116,0.0094,0.0107,0.0104,0.0073,0.0072,0.0072,0.0072,0.0072,0.0072,0.0071,0.0029,0.0039,0.0052,0.0083,0.0113,0.0129,0.0174,0.0166,0.0145,0.0157,0.0171,0.0132,0.0131,0.0164,0.0164,0.0164,0.0165,0.0165,0.0165,0.0029,0.0045,0.007,0.0102,0.0133,0.0179,0.0215,0.0233,0.0214,0.0208,0.017,0.0142,0.0139,0.0137,0.0168,0.0167,0.0167,0.0167,0.0166,0.004,0.0047,0.0085,0.0117,0.0194,0.0235,0.0269,0.0297,0.0312,0.0303,0.0233,0.0229,0.0229,0.0224,0.0225,0.0283,0.0284,0.0284,0,0.0046,0.0052,0.0109,0.0169,0.0239,0.0275,0.0329,0.0346,0.0312,0.03,0.0293,0.0213,0.021,0.0208,0.0204,0.0204,0,0,0,0.0057,0.0074,0.0119,0.0179,0.0263,0.0317,0.0347,0.0351,0.0312,0.0339,0.0294,0.0292,0.0238,0.0177,0.0167,0.0164,0.0161,0,0]}]]